EDT,Max TemperatureF,Mean TemperatureF,Min TemperatureF,Max Dew PointF,MeanDew PointF,Min DewpointF,Max Humidity, Mean Humidity, Min Humidity, Max Sea Level PressureIn, Mean Sea Level PressureIn, Min Sea Level PressureIn, Max VisibilityMiles, Mean VisibilityMiles, Min VisibilityMiles, Max Wind SpeedMPH, Mean Wind SpeedMPH, Max Gust SpeedMPH,PrecipitationIn, CloudCover, Events, WindDirDegrees
2013-10-1,82,68,55,64,59,54,100,77,39,30.17,30.11,30.06,10,10,7,8,1,,0.00,0,,237
2013-10-2,84,72,59,68,62,57,100,79,42,30.18,30.12,30.09,10,10,7,5,1,,0.00,0,,314
2013-10-3,84,72,60,68,63,59,100,78,42,30.16,30.12,30.08,10,9,1,7,1,,0.00,0,,223
2013-10-4,86,73,60,70,64,61,100,79,45,30.18,30.13,30.10,10,9,3,5,0,,0.00,0,,108
2013-10-5,87,74,62,70,65,61,100,80,40,30.16,30.11,30.05,10,9,3,6,0,,0.00,0,,177
2013-10-6,84,73,62,70,65,63,100,82,48,30.07,30.00,29.90,10,8,2,7,1,,0.00,2,,202
2013-10-7,77,70,62,72,66,55,100,84,64,30.01,29.89,29.82,10,10,4,12,5,,0.63,6,Rain-Thunderstorm,294
2013-10-8,71,66,60,54,51,46,77,62,46,30.20,30.12,30.00,10,10,10,17,9,26,0.00,6,,45
2013-10-9,75,64,53,52,45,41,77,55,31,30.23,30.17,30.12,10,10,10,14,8,22,0.00,0,,32
2013-10-10,80,65,50,61,52,48,94,66,36,30.15,30.07,30.00,10,10,5,12,2,,0.00,1,,359
2013-10-11,82,70,59,61,56,54,94,65,39,30.03,29.99,29.94,10,10,10,9,2,,0.00,1,,315
2013-10-12,78,66,55,64,59,55,100,77,47,30.10,30.04,29.98,10,10,10,5,0,,0.00,5,,28
2013-10-13,77,72,66,64,63,63,94,80,61,30.22,30.17,30.11,10,10,10,8,2,,0.00,7,,48
2013-10-14,71,66,62,63,62,61,100,82,69,30.25,30.20,30.16,10,10,7,12,6,16,0.00,8,,50
2013-10-15,73,66,60,63,58,55,94,78,53,30.21,30.14,30.07,10,10,10,10,4,,0.00,5,,38
2013-10-16,75,65,55,63,59,55,100,82,53,30.09,30.03,29.98,10,10,10,6,1,,0.00,1,,266
2013-10-17,71,66,60,68,64,61,100,94,73,29.99,29.93,29.88,10,8,2,9,2,,0.14,6,Rain,231
2013-10-18,71,63,55,68,60,54,100,86,60,30.04,29.97,29.91,10,10,0,8,3,,0.00,4,Fog,30
2013-10-19,66,60,55,63,60,55,100,95,73,29.98,29.93,29.88,10,7,0,10,1,,0.01,5,Fog-Rain,249
2013-10-20,68,56,44,54,48,45,100,79,43,30.09,30.03,29.94,10,10,0,9,2,,0.00,0,Fog,60
2013-10-21,71,58,46,55,50,45,100,79,50,30.16,30.09,30.01,10,10,7,7,2,,0.00,1,,306
2013-10-22,69,63,57,59,57,52,100,83,56,30.04,29.93,29.82,10,10,5,9,2,,0.00,4,Rain,236
2013-10-23,69,58,44,57,43,30,100,67,27,30.05,29.84,29.75,10,8,0,16,7,29,0.00,0,Fog,284
2013-10-24,64,50,35,45,37,32,100,66,34,30.19,30.12,30.05,10,10,10,10,2,,0.00,2,,253
2013-10-25,55,47,39,43,33,27,100,64,33,30.38,30.30,30.17,10,10,7,13,3,18,0.00,0,,8
2013-10-26,60,46,32,37,33,30,100,66,34,30.37,30.25,30.10,10,10,10,12,3,18,0.00,0,,245
2013-10-27,69,54,39,54,45,37,100,71,43,30.14,30.09,30.05,10,10,7,8,3,,0.00,0,,233
2013-10-28,69,60,51,59,55,52,100,87,53,30.27,30.20,30.11,10,9,4,8,1,,0.04,5,Rain,241
2013-10-29,73,62,51,57,54,50,100,80,44,30.34,30.28,30.24,10,8,1,8,2,,0.00,1,,15
2013-10-30,78,66,53,59,56,54,100,78,44,30.30,30.24,30.17,10,10,10,13,2,22,0.00,1,,236
2013-10-31,73,64,55,64,59,55,100,83,60,30.20,30.08,29.91,10,10,5,7,2,,0.00,2,,203